TimeCDT,TemperatureF,Dew PointF,Humidity,Sea Level PressureIn,VisibilityMPH,Wind Direction,Wind SpeedMPH,Gust SpeedMPH,PrecipitationIn,Events,Conditions,WindDirDegrees,DateUTC
12:15 AM,78.8,69.8,74,29.95,10.0,Calm,Calm,-,N/A,,Clear,0,2013-09-03 05:15:00
12:35 AM,80.6,69.8,70,29.95,10.0,Calm,Calm,-,N/A,,Clear,0,2013-09-03 05:35:00
12:55 AM,78.8,69.8,74,29.95,10.0,Calm,Calm,-,N/A,,Clear,0,2013-09-03 05:55:00
1:15 AM,78.8,69.8,74,29.96,10.0,Calm,Calm,-,N/A,,Clear,0,2013-09-03 06:15:00
1:35 AM,78.8,69.8,74,29.95,10.0,Calm,Calm,-,N/A,,Clear,0,2013-09-03 06:35:00
1:55 AM,78.8,69.8,74,29.96,10.0,South,3.5,-,N/A,,Clear,170,2013-09-03 06:55:00
2:15 AM,78.8,69.8,74,29.96,10.0,South,3.5,-,N/A,,Clear,190,2013-09-03 07:15:00
2:35 AM,78.8,69.8,74,29.95,10.0,Calm,Calm,-,N/A,,Clear,0,2013-09-03 07:35:00
2:55 AM,78.8,69.8,74,29.95,10.0,South,4.6,-,N/A,,Clear,190,2013-09-03 07:55:00
3:15 AM,78.8,69.8,74,29.96,10.0,South,3.5,-,N/A,,Clear,190,2013-09-03 08:15:00
3:35 AM,78.8,71.6,78,29.96,10.0,South,3.5,-,N/A,,Clear,180,2013-09-03 08:35:00
3:55 AM,78.8,71.6,78,29.96,10.0,South,3.5,-,N/A,,Clear,180,2013-09-03 08:55:00
4:15 AM,77.0,71.6,83,29.95,10.0,South,3.5,-,N/A,,Clear,180,2013-09-03 09:15:00
4:35 AM,78.8,71.6,78,29.96,10.0,Calm,Calm,-,N/A,,Clear,0,2013-09-03 09:35:00
4:55 AM,78.8,71.6,78,29.96,10.0,South,3.5,-,N/A,,Clear,170,2013-09-03 09:55:00
5:15 AM,77.0,71.6,83,29.96,10.0,Calm,Calm,-,N/A,,Clear,0,2013-09-03 10:15:00
5:35 AM,77.0,71.6,83,29.96,10.0,Calm,Calm,-,N/A,,Clear,0,2013-09-03 10:35:00
5:55 AM,75.2,71.6,89,29.96,10.0,Calm,Calm,-,N/A,,Clear,0,2013-09-03 10:55:00
6:15 AM,75.2,71.6,89,29.97,10.0,Calm,Calm,-,N/A,,Clear,0,2013-09-03 11:15:00
6:35 AM,75.2,71.6,89,29.97,10.0,Calm,Calm,-,N/A,,Clear,0,2013-09-03 11:35:00
6:55 AM,75.2,71.6,89,29.98,10.0,Calm,Calm,-,N/A,,Clear,0,2013-09-03 11:55:00
7:15 AM,75.2,69.8,83,29.98,10.0,Calm,Calm,-,N/A,,Clear,0,2013-09-03 12:15:00
7:35 AM,75.2,71.6,89,29.98,10.0,Calm,Calm,-,N/A,,Clear,0,2013-09-03 12:35:00
7:55 AM,77.0,71.6,83,29.99,10.0,Calm,Calm,-,N/A,,Clear,0,2013-09-03 12:55:00
8:15 AM,80.6,71.6,74,29.99,10.0,South,3.5,-,N/A,,Clear,170,2013-09-03 13:15:00
8:35 AM,82.4,71.6,70,29.99,10.0,SW,3.5,-,N/A,,Clear,230,2013-09-03 13:35:00
8:55 AM,84.2,71.6,66,29.99,10.0,West,6.9,-,N/A,,Clear,260,2013-09-03 13:55:00
9:15 AM,86.0,71.6,62,29.99,10.0,West,5.8,-,N/A,,Clear,280,2013-09-03 14:15:00
9:35 AM,87.8,71.6,58,30.00,10.0,WSW,5.8,-,N/A,,Clear,250,2013-09-03 14:35:00
9:55 AM,87.8,69.8,55,30.00,10.0,West,5.8,-,N/A,,Clear,270,2013-09-03 14:55:00
10:15 AM,89.6,69.8,52,30.00,10.0,NW,6.9,-,N/A,,Clear,320,2013-09-03 15:15:00
10:35 AM,89.6,69.8,52,30.00,10.0,Calm,Calm,-,N/A,,Clear,0,2013-09-03 15:35:00
10:55 AM,91.4,69.8,49,30.00,10.0,NNE,3.5,-,N/A,,Clear,20,2013-09-03 15:55:00
11:15 AM,93.2,69.8,46,30.00,10.0,WSW,4.6,-,N/A,,Clear,240,2013-09-03 16:15:00
11:35 AM,93.2,69.8,46,30.00,10.0,Calm,Calm,-,N/A,,Clear,0,2013-09-03 16:35:00
11:55 AM,95.0,69.8,44,29.99,10.0,NW,5.8,-,N/A,,Clear,310,2013-09-03 16:55:00
12:15 PM,95.0,68.0,41,29.99,10.0,NNW,4.6,-,N/A,,Clear,330,2013-09-03 17:15:00
12:35 PM,96.8,68.0,39,29.99,10.0,Calm,Calm,-,N/A,,Unknown,0,2013-09-03 17:35:00
12:55 PM,96.8,66.2,37,29.98,10.0,East,3.5,-,N/A,,Unknown,90,2013-09-03 17:55:00
1:15 PM,96.8,68.0,39,29.97,10.0,NW,6.9,-,N/A,,Unknown,310,2013-09-03 18:15:00
1:35 PM,98.6,66.2,35,29.96,10.0,North,3.5,-,N/A,,Unknown,10,2013-09-03 18:35:00
1:55 PM,98.6,66.2,35,29.95,10.0,NE,8.1,-,N/A,,Unknown,40,2013-09-03 18:55:00
2:15 PM,95.0,68.0,41,29.94,10.0,ESE,8.1,-,N/A,,Unknown,120,2013-09-03 19:15:00
2:35 PM,93.2,68.0,44,29.94,10.0,SE,6.9,-,N/A,,Unknown,140,2013-09-03 19:35:00
2:55 PM,93.2,69.8,46,29.92,10.0,SE,5.8,-,N/A,,Unknown,140,2013-09-03 19:55:00
3:15 PM,95.0,71.6,47,29.92,10.0,South,8.1,-,N/A,,Unknown,190,2013-09-03 20:15:00
3:35 PM,93.2,69.8,46,29.91,10.0,South,5.8,-,N/A,,Unknown,180,2013-09-03 20:35:00
3:55 PM,96.8,68.0,39,29.90,10.0,SSE,4.6,-,N/A,,Unknown,160,2013-09-03 20:55:00
4:15 PM,98.6,66.2,35,29.89,10.0,West,10.4,-,N/A,Thunderstorm,Unknown,260,2013-09-03 21:15:00
4:35 PM,96.8,66.2,37,29.89,10.0,West,6.9,-,N/A,,Unknown,270,2013-09-03 21:35:00
4:55 PM,98.6,66.2,35,29.89,10.0,SSW,4.6,-,N/A,,Unknown,210,2013-09-03 21:55:00
5:15 PM,98.6,66.2,35,29.89,10.0,SW,6.9,-,N/A,Thunderstorm,Unknown,220,2013-09-03 22:15:00
5:35 PM,96.8,69.8,41,29.90,10.0,SW,9.2,-,N/A,Thunderstorm,Unknown,220,2013-09-03 22:35:00
5:55 PM,89.6,69.8,52,29.92,9.0,ESE,10.4,23.0,N/A,Thunderstorm,Thunderstorm,120,2013-09-03 22:55:00
6:15 PM,84.2,69.8,62,29.95,7.0,NE,15.0,18.4,N/A,Rain-Thunderstorm,Light Thunderstorms and Rain,50,2013-09-03 23:15:00
6:35 PM,77.0,71.6,83,29.91,1.5,SE,9.2,-,0.11,Thunderstorm,Unknown,140,2013-09-03 23:35:00
6:55 PM,77.0,71.6,83,29.92,10.0,NE,4.6,16.1,0.11,,Scattered Clouds,50,2013-09-03 23:55:00
7:15 PM,78.8,73.4,83,29.93,10.0,Calm,Calm,-,N/A,,Clear,0,2013-09-04 00:15:00
7:35 PM,78.8,73.4,83,29.93,10.0,Calm,Calm,-,N/A,,Clear,0,2013-09-04 00:35:00
7:55 PM,77.0,73.4,89,29.94,9.0,Calm,Calm,-,N/A,,Clear,0,2013-09-04 00:55:00
8:15 PM,77.0,75.2,94,29.93,10.0,South,3.5,-,N/A,,Clear,170,2013-09-04 01:15:00
8:35 PM,77.0,75.2,94,29.93,8.0,NNE,3.5,-,N/A,,Clear,30,2013-09-04 01:35:00
8:55 PM,77.0,73.4,89,29.94,9.0,Calm,Calm,-,N/A,,Clear,0,2013-09-04 01:55:00
9:15 PM,75.2,75.2,100,29.95,5.0,Calm,Calm,-,N/A,,Clear,0,2013-09-04 02:15:00
9:35 PM,75.2,75.2,100,29.95,6.0,NE,3.5,-,N/A,,Partly Cloudy,50,2013-09-04 02:35:00
9:55 PM,75.2,73.4,94,29.96,10.0,Calm,Calm,-,N/A,,Partly Cloudy,0,2013-09-04 02:55:00
10:15 PM,77.0,75.2,94,29.96,9.0,Calm,Calm,-,N/A,,Scattered Clouds,0,2013-09-04 03:15:00
10:35 PM,77.0,73.4,89,29.97,10.0,Calm,Calm,-,N/A,,Clear,0,2013-09-04 03:35:00
10:55 PM,75.2,73.4,94,29.97,10.0,Calm,Calm,-,N/A,,Clear,0,2013-09-04 03:55:00
11:15 PM,75.2,73.4,94,29.98,10.0,Calm,Calm,-,N/A,,Clear,0,2013-09-04 04:15:00
11:35 PM,75.2,73.4,94,29.98,10.0,Calm,Calm,-,N/A,,Clear,0,2013-09-04 04:35:00
11:55 PM,77.0,71.6,83,29.98,10.0,ESE,4.6,-,N/A,,Clear,120,2013-09-04 04:55:00